Probability
0 0 0 0 0 0 0 0 0 0 0 0 0 0 0 0 0 0 0 0 0 0 0 0 0 0 0 0 0 0 0 0 0 0 0 0 0 0 0 0 0 0 0 0
0 0 0 0 0 0 0 0 0 0 0 0 0 0 0 0 0 0 0 0 0 0 0 0 0 0 0 0 0 0 0 0 0 0 0 0 0 0 0 0 0 0 0 0
0 0 0 0 0 0 0 0 0 0 0 0 0 0 0 0 0 0 0 0 0 0 0 0 0 0 0 0 0 0 0 0 0 0 0 0 0 0 0 0 0 0 0 0
0 0 0 0 0 0 0 0 0 0 0 0 0 0 0 0 0 0 0 0 0 0 0 0 0 0 0 0 0 0 0 0 0 0 0 0 0 0 0 0 0 0 0 0
0 0 0 0 0 0 0 0 0 0 0 0 0 0 0 0 0 0 0 0 0 0 0 0 0 0 0 0 0 0 0 0 0 0 0 0 0 0 0 0 0 0 0 0
0 0 0 0 0 0 0 0 0 0 0 0 0 0 0 0 0 0 0 0 0 0 0 0 0 0 0 0 0 0 0 0 0 0 0 0 0 0 0 0 0 0 0 0
0 0 0 0 0 0 0 0 0 0 0 0 0 0 0 0 0 0 0 0 0 0 0 0 0 0 0 0 0 0 0 0 0 0 0 0 0 0 0 0 0 0 0 0
0 0 0 0 0 0 0 0 0 0 0 0 0 0 0 0 0 0 0 0 0 0 0 0 0 0 0 0 0 0 0 0 0 0 0 0 0 0 0 0 0 0 0 0
0 0 0 0 0 0 0 0 0 0 0 0 0 0 0 0 0 0 0 0 0 0 0 0 0 0 0 0 0 0 0 0 0 0 0 0 0 0 0 0 0 0 0 0
0 0 0 0 0 0 0 0 0 0 0 0 0 0 0 0 0 0 0 0 0 0 0 0 0 0 0 0 0 0 0 0 0 0 0 0 0 0 0 0 0 0 0 0
0 0 0 0 0 0 0 0 0 0 0 0 0 0 0 0 0 0 0 0 0 0 0 0 0 0 0 0 0 0 0 0 0 0 0 0 0 0 0 0 0 0 0 0
0 0 0 0 0 0 0 0 0 0 0 0 0 0 0 0 0 0 0 0 0 0 0 0 0 0 0 0 0 0 0 0 0 0 0 0 0 0 0 0 0 0 0 0
0 0 0 0 0 0 0 0 0 0 0 0 0 0 0 0 0 0 0 0 0 0 0 0 0 0 0 0 0 0 0 0 0 0 0 0 0 0 0 0 0 0 0 0
0 0 0 0 0 0 0 0 0 0 0 0 0 0 0 0 0 0 0 0 0 0 0 0 0 0 0 0 0 0 0 0 0 0 0 0 0 0 0 0 0 0 0 0
0 0 0 0 0 0 0 0 0 0 0 0 0 0 0 0 0 0 0 0 0 0 0 0 0 0 0 0 0 0 0 0 0 0 0 0 0 0 0 0 0 0 0 0
0 0 0 0 0 0 0 0 0 0 0 0 0 0 0 0 0 0 0 0 0 0 0 0 0 0 0 0 0 0 0 0 0 0 0 0 0 0 0 0 0 0 0 0
0 0 0 0 0 0 0 0 0 0 0 0 0 0 0 0 0 0 0 0 0 0 0 0 0 0 0 0 0 0 0 0 0 0 0 0 0 0 0 0 0 0 0 0
0 0 0 0 0 0 0 0 0 0 0 0 0 0 0 0 0 0 0 0 0 0 0 0 0 0 0 0 0 0 0 0 0 0 0 0 0 0 0 0 0 0 0 0
0 0 0 0 0 0 0 0 0 0 0 0 0 0 0 0 0 0 0 0 0 0 0 0 0 0 0 0 0 0 0 0 0 0 0 0 0 0 0 0 0 0 0 0
0 0 0 0 0 0 0 0 0 0 0 0 0 0 0 0 0 0 0 0 0 0 0 0 0 0 0 0 0 0 0 0 0 0 0 0 0 0 0 0 0 0 0 0
0 0 0 0 0 0 0 0 0 0 0 0 0 0 0 0 0 0 0 0 0 0 0 0 0 0 0 0 0 0 0 0 0 0 0 0 0 0 0 0 0 0 0 0
0 0 0 0 0 0 0 0 0 0 0 0 0 0 0 0 0 0 0 0 0 0 0 0 0 0 0 0 0 0 0 0 0 0 0 0 0 0 0 0 0 0 0 0
0 0 0 0 0 0 0 0 0 0 0 0 0 0 0 0 0 0 0 0 0 0 0 0 0 0 0 0 0 0 0 0 0 0 0 0 0 0 0 0 0 0 0 0
0 0 0 0 0 0 0 0 0 0 0 0 0 0 0 0 0 0 0 0 0 0 0 0 0 0 0 0 0 0 0 0 0 0 0 0 0 0 0 0 0 0 0 0
0 0 0 0 0 0 0 0 0 0 0 0 0 0 0 0 0 0 0 0 0 0 0 0 0 0 0 0 0 0 0 0 0 0 0 0 0 0 0 0 0 0 0 0
0 0 0 0 0 0 0 0 0 0 0 0 0 0 0 0 0 0 0 0 0 0 0 0 0 0 0 0 0 0 0 0 0 0 0 0 0 0 0 0 0 0 0 0
0 0 0 0 0 0 0 0 0 0 0 0 0 0 0 0 0 0 0 0 0 0 0 0 0 0 0 0 0 0 0 0 0 0 0 0 0 0 0 0 0 0 0 0
Wind_Speed
5 6 4 5 6 6 6 8 8 8 7 8 8 8 8 7 6 5 5 5 6 6 5 4 4 4 3 3 3 3 2 2 2 2 1 2 2 3 3 3 4 4 4 4
3 4 3 4 6 7 7 6 7 5 6 6 4 4 5 6 7 6 6 6 6 5 5 5 5 5 3 3 3 3 3 2 2 1 1 2 2 3 3 3 4 4 4 4
4 5 3 4 7 7 7 7 8 9 9 4 5 7 8 8 7 7 6 5 6 5 5 6 6 5 5 4 3 3 3 2 1 1 1 2 2 2 3 3 3 4 4 4
1 2 4 10 6 6 6 6 6 6 6 8 8 6 5 6 7 6 6 5 5 5 4 4 3 4 4 3 3 3 2 2 2 2 2 2 2 2 3 2 2 3 4 4
2 2 6 8 6 4 4 4 4 6 6 5 5 5 2 2 5 6 6 5 5 4 4 4 4 4 4 3 2 2 2 3 3 3 2 2 2 3 2 2 2 2 3 3
3 2 5 9 6 2 4 3 4 6 8 7 7 4 4 3 5 5 5 4 4 4 4 4 3 4 5 3 2 2 3 4 3 3 3 3 3 3 2 2 2 3 3 3
4 4 8 9 4 3 4 8 4 6 7 8 8 7 6 5 5 5 5 4 5 5 4 3 3 5 4 2 2 3 3 2 2 3 3 4 3 2 2 2 2 3 3 3
5 4 10 6 3 6 9 4 3 5 6 7 6 5 6 7 6 6 5 5 5 6 4 2 3 5 4 1 3 2 1 1 2 3 3 2 2 3 3 2 3 3 3 4
9 10 8 4 6 5 6 5 5 6 6 8 8 7 7 6 6 6 6 5 5 6 5 2 2 3 3 1 1 0 0 1 2 3 3 2 2 3 3 2 2 3 3 3
4 7 5 4 3 3 5 5 5 6 7 8 8 8 7 7 6 5 5 5 5 6 5 2 2 2 1 0 1 2 1 2 2 2 3 3 2 2 2 2 2 3 3 3
4 5 3 5 5 5 4 4 5 5 6 8 9 8 8 7 7 6 5 4 5 5 5 3 2 2 2 2 2 2 1 2 2 2 3 3 3 2 3 3 2 3 3 3
7 8 7 9 8 7 7 7 7 7 5 6 8 9 8 7 6 6 6 5 5 6 5 3 3 3 3 2 2 2 2 2 2 2 2 2 3 4 4 4 6 4 4 3
9 8 8 7 6 7 8 8 7 7 8 7 6 8 8 6 5 6 6 6 6 6 5 4 4 3 3 2 2 2 2 2 2 2 2 3 3 3 5 6 6 6 7 7
6 3 4 5 7 7 7 7 6 6 6 7 7 7 8 7 7 7 7 6 6 6 5 5 4 3 3 3 3 2 2 3 3 2 2 2 2 2 2 3 5 5 6 7
8 7 7 6 5 5 6 7 8 7 6 6 7 8 9 9 8 7 6 7 7 7 5 5 5 3 3 3 3 3 2 2 2 2 2 2 3 3 3 3 3 4 5 7
7 4 4 5 8 8 7 8 9 9 8 7 7 8 8 9 8 7 6 7 8 6 5 5 4 2 3 4 4 3 3 6 5 3 3 3 3 3 4 4 4 4 5 5
3 4 5 6 8 8 9 9 10 10 8 9 9 9 10 10 9 8 7 6 7 6 5 5 3 2 3 4 4 2 2 4 7 4 3 3 3 4 3 3 4 4 4 6
8 10 9 10 10 9 9 8 9 10 9 9 11 10 11 11 10 9 8 7 7 6 4 3 3 3 4 3 3 2 2 2 3 3 3 3 3 3 3 4 4 5 4 5
6 6 6 7 7 8 8 8 9 9 9 11 11 11 9 9 9 9 8 7 7 5 2 2 6 5 3 4 4 3 3 3 3 3 2 4 4 3 3 3 3 4 4 4
2 2 3 4 5 6 7 7 8 9 9 11 12 11 10 9 9 9 8 6 4 3 3 4 4 3 2 3 5 3 3 3 3 2 2 3 3 3 3 3 3 4 4 4
2 2 3 4 5 5 7 8 10 9 9 10 12 12 11 9 8 8 8 5 2 3 4 6 3 2 1 2 4 3 2 2 2 2 2 2 2 3 3 3 3 3 3 4
2 3 4 5 6 5 5 6 8 10 9 9 10 10 11 9 8 6 5 4 5 6 4 3 2 3 3 3 2 2 2 1 1 1 1 1 2 2 3 3 3 3 3 3
2 3 4 5 5 5 6 6 7 8 9 9 10 10 9 8 6 7 4 3 4 7 4 3 4 4 3 2 1 1 1 1 1 1 1 1 1 1 2 2 2 3 3 3
2 2 3 4 5 6 6 5 6 6 7 7 7 8 9 7 4 3 4 8 9 7 3 4 5 4 3 2 1 1 1 0 0 0 1 1 1 1 1 2 2 3 3 4
1 2 3 5 5 4 5 6 6 6 6 5 5 6 5 5 5 5 4 5 8 7 3 3 4 3 2 1 1 1 1 1 1 1 1 1 1 1 1 2 2 3 3 3
1 1 2 3 4 4 4 5 5 4 5 5 3 3 3 4 5 5 4 5 6 6 4 2 2 2 1 1 1 1 1 1 1 1 1 1 1 2 2 2 3 3 3 4
1 1 1 1 2 3 4 4 5 5 5 5 4 4 4 4 4 5 5 4 3 3 3 2 2 2 2 2 2 1 1 1 1 1 1 1 1 1 2 3 3 3 3 4
Wind_Direction
226 236 215 220 229 206 185 187 190 224 216 230 217 205 201 194 185 180 185 187 188 193 199 197 193 197 193 192 185 170 160 180 229 255 290 322 334 335 338 343 346 341 345 346
300 285 274 251 239 220 216 207 207 212 238 235 208 177 174 177 175 181 189 192 191 191 187 191 194 196 188 187 185 162 162 196 229 261 299 309 314 330 342 341 338 345 348 343
277 301 2 279 238 214 215 211 189 207 224 193 170 181 183 182 181 185 190 187 183 184 188 195 196 189 187 191 175 161 174 200 216 235 274 289 307 334 333 325 333 339 342 344
223 2 251 250 254 216 213 234 207 197 193 181 183 187 183 176 171 176 177 172 174 174 174 179 178 175 175 166 161 169 187 212 223 228 260 283 304 308 307 309 319 323 328 333
139 223 277 289 278 196 180 260 225 182 177 168 136 85 14 204 163 166 167 165 168 168 159 154 157 158 143 146 155 169 208 224 228 223 242 270 282 284 284 292 307 307 308 322
133 176 245 255 269 220 106 283 270 171 162 155 128 131 234 208 145 134 132 138 140 134 122 131 147 133 124 139 153 210 231 233 232 222 228 247 261 269 269 262 275 293 308 306
173 212 259 254 262 90 145 234 237 171 161 159 172 189 189 153 136 133 131 133 129 121 120 141 145 123 118 130 218 245 242 237 244 242 241 246 260 270 271 274 292 301 303 303
160 192 253 250 155 179 212 212 166 160 159 155 160 145 139 141 140 137 128 122 124 118 116 118 123 118 118 185 254 244 215 250 273 272 272 269 267 281 285 280 286 293 301 304
188 212 238 225 204 206 171 167 174 164 161 145 142 150 151 150 149 147 141 136 128 125 117 95 99 114 126 260 274 170 72 308 299 305 301 297 277 280 290 285 275 281 284 286
249 265 262 248 216 186 176 173 171 165 159 151 151 155 150 150 152 150 146 142 131 122 118 105 79 80 102 328 99 101 53 324 321 320 315 315 306 293 288 285 279 280 281 280
271 279 304 282 238 205 184 162 152 153 159 158 150 152 155 154 156 153 146 141 130 127 125 117 89 59 27 23 73 80 29 349 340 332 321 319 314 291 278 264 247 251 261 258
235 234 214 238 233 205 184 184 173 159 154 156 154 155 153 155 156 149 143 134 124 122 120 111 89 58 23 28 70 78 29 353 342 338 334 333 331 330 317 304 313 304 296 289
232 240 224 238 225 203 189 187 177 168 162 157 153 149 145 145 148 141 135 133 134 133 128 112 88 57 19 20 54 63 39 358 350 351 348 344 344 341 334 336 342 335 328 321
247 220 224 219 214 203 184 171 155 145 149 148 145 140 136 132 131 132 137 139 133 124 117 108 90 56 13 26 54 45 27 19 18 352 345 344 343 338 339 345 348 345 337 334
250 228 222 218 195 180 162 146 144 149 145 140 141 142 140 138 138 137 133 127 117 110 106 101 86 51 18 37 52 42 29 12 9 360 358 355 352 354 356 356 350 342 347 352
252 244 212 192 187 181 169 165 166 169 160 149 146 145 141 135 130 125 123 122 117 115 111 103 90 61 44 51 51 40 25 31 42 27 14 12 12 11 7 3 1 0 359 354
217 221 212 207 198 192 189 183 176 169 161 153 150 142 134 127 121 118 115 113 113 111 107 102 95 70 62 59 60 46 30 24 34 36 26 23 21 17 11 9 6 0 352 354
224 217 207 199 196 193 190 177 169 163 159 155 145 140 139 139 139 137 131 121 107 93 83 92 98 84 61 53 62 50 45 36 33 31 24 24 18 13 14 13 9 4 355 359
254 233 217 204 192 180 176 171 166 159 151 146 144 144 142 141 139 136 130 123 119 114 103 91 100 88 64 50 68 58 51 43 36 27 24 21 19 9 8 6 2 0 0 4
303 234 187 173 158 153 155 151 146 144 146 143 138 136 135 138 138 134 127 123 140 156 153 121 105 91 65 54 66 65 55 48 40 28 27 26 17 6 360 358 357 358 359 359
17 81 110 124 124 127 136 139 140 139 140 141 142 144 143 141 140 136 129 129 165 156 138 121 116 118 97 80 66 64 56 50 44 35 29 20 13 7 1 359 359 357 356 353
29 83 96 103 109 111 117 122 129 131 131 132 134 135 135 136 134 128 132 151 165 152 136 126 137 138 122 86 74 62 53 49 39 26 16 9 5 357 353 353 351 350 347 341
53 96 103 107 114 113 106 111 123 131 135 139 141 142 142 143 145 142 149 175 160 150 141 152 158 147 111 91 91 72 58 52 33 9 358 353 346 341 338 339 335 333 330 329
58 90 104 107 105 111 117 122 119 122 127 131 138 142 140 136 135 151 151 160 162 156 154 164 164 153 116 116 119 109 103 85 324 313 325 331 332 330 326 325 321 317 316 319
114 124 125 130 130 140 143 130 117 115 116 119 128 137 141 144 147 158 155 160 166 162 165 176 169 143 116 136 150 167 196 214 211 215 256 290 298 300 300 302 307 312 314 313
197 175 176 172 161 153 149 139 135 136 132 131 134 139 136 138 143 147 152 163 168 165 168 182 178 151 155 174 191 202 218 258 325 337 283 284 286 289 291 299 308 309 310 311
210 177 157 148 153 150 147 147 149 154 154 151 153 158 155 153 153 156 157 159 164 167 172 179 181 181 185 195 207 221 230 233 239 255 273 278 282 285 292 306 311 314 317 319